User: anonymous   Login
Location: Melbourne
(37.8170°S, 144.9670°E)
Time: 16:35:34
(UTC+11:00)
Language:

Cosmos 962 Rocket - Orbit

View from above orbital plane
View from above orbital plane
View from above satellite
View from above satellite

Ground track
Ground track

The orbit data is extracted from the following two-line orbital elements,

1 10461U 77107B   14355.09195902  .00000146  00000-0  13203-3 0  6997
2 10461 082.9493 328.2628 0033819 169.8685 237.6121 13.76712317865680
Epoch (UTC): 21 December 2014 02:12:25
Eccentricity: 0.0033819
inclination: 82.9493°
perigee height: 951 km
apogee height: 1000 km
right ascension of ascending node: 328.2628°
argument of perigee: 169.8685°
revolutions per day: 13.76712317
mean anomaly at epoch: 237.6121°
orbit number at epoch: 86568

The dashed part of the orbit path shows where the satellite is in the earth's shadow,  

DLR